[[{"header":{"parameterUnit":"m.s-1","parameterCategory":2,"la1":30.2991,"la2":30.254,"lo1":-89.0895,"lo2":-89.0444,"dy":0.0017,"dx":0.0017,"nx":28,"ny":28,"refTime":"2025-03-30T03:00:00:Z","depth":"0","parameterNumber":2,"parameterNumberName":"U-component_of_CURRENTS"},"data":[0,0,0,0,0,0,0,0,0,0,0,0,0,0,0,0,0,0,0,0,0,0,0,0,0,0,0,0,0,0,0,0,0,0,0,0,0,0,0,0,0,0,0,0,0,0,0,0,0,0,0,0,0,0,0,0,0,0,0.2754,0.2754,0,0.2852,0.2854,0.2855,0.2906,0.2906,0.2905,0.2905,0.3109,0.3114,0.312,0,0,0,0,0,0,0,0,0,0,0,0,0,0.2811,0.2809,0.2754,0.2755,0.2755,0.2852,0.2854,0.2856,0.2906,0.2906,0.2905,0.2905,0.3107,0.3114,0.3121,0,0,0,0,0,0,0,0,0,0,0,0,0,0.284,0.2809,0.2754,0.2788,0.2792,0.2852,0.2854,0.2856,0.2906,0.2906,0.2905,0.2904,0.3104,0.3113,0.3122,0.3188,0,0,0.3148,0.3152,0,0,0,0,0,0,0,0,0.2838,0.2839,0.2782,0.2786,0.279,0.2862,0.2949,0.2971,0.2906,0.2868,0.2905,0.2904,0.3033,0.3047,0.3073,0.3198,0.3207,0.3149,0.3154,0.3158,0.3161,0,0,0,0,0,0,0,0.2836,0.2836,0.2798,0.2783,0.2788,0.2868,0.287,0.2954,0.2959,0.2872,0.2874,0.2877,0.3036,0.3065,0.3079,0.321,0.3149,0.3157,0.3162,0.3165,0.3483,0.3486,0,0,0,0,0,0,0.2803,0.2832,0.2795,0.2801,0.2807,0.2866,0.2869,0.2844,0.2956,0.297,0.2877,0.2879,0.305,0.3068,0.3086,0.3234,0.3158,0.3166,0.3171,0.348,0.3484,0.3488,0,0,0,0,0,0,0.2803,0.2797,0.2791,0.2817,0.2821,0.2863,0.2837,0.2846,0.2874,0.2958,0.2975,0.2895,0.305,0.3074,0.3213,0.3239,0.317,0.3178,0.3476,0.3481,0.3486,0.3489,0,0,0,0,0,0,0.2804,0.2796,0.278,0.2813,0.2818,0.2828,0.2837,0.2848,0.2874,0.2877,0.298,0.2998,0.3052,0.32,0.3222,0.325,0.3185,0.3472,0.3479,0.3484,0.3485,0.3494,0.3501,0,0,0,0,0,0.2805,0.2784,0.2778,0.2774,0.2788,0.2828,0.2839,0.2873,0.2875,0.2895,0.2999,0.2994,0.3252,0.3211,0.3236,0.3267,0.3469,0.3477,0.3484,0.3482,0.3492,0.3501,0,0,0,0,0,0,0.2818,0.2787,0.2781,0.2755,0.2787,0.2834,0.2851,0.2873,0.2965,0.2974,0.3055,0.3084,0.321,0.3251,0.3204,0.3379,0.3352,0.3364,0.3342,0.3352,0.336,0.3317,0.3192,0,0,0,0,0,0.2804,0.2767,0.2779,0.2763,0.277,0.2811,0.2832,0.2853,0.2928,0.2964,0.3041,0.3141,0.3259,0.3314,0.3411,0.3516,0.3499,0.3548,0.3556,0.3562,0.3548,0.3598,0.3607,0.3511,0.3511,0.3511,0,0,0.2804,0.2784,0.2764,0.2762,0.2785,0.2816,0.2824,0.2851,0.2899,0.2977,0.308,0.3174,0.3298,0.3423,0.3479,0.3459,0.3572,0.3571,0.3575,0.3557,0.3606,0.3614,0.3622,0.3516,0.3515,0.3515,0,0,0.28,0.2767,0.2744,0.2767,0.2787,0.2818,0.2822,0.2872,0.2914,0.3023,0.3107,0.3221,0.3373,0.3473,0.3545,0.3655,0.3617,0.3681,0.3682,0.3732,0.3738,0.3744,0.3677,0.3677,0.3678,0.3678,0.3678,0,0.2811,0.2769,0.2758,0.2765,0.2785,0.2816,0.2838,0.2896,0.2995,0.3052,0.3052,0.3307,0.3395,0.3574,0.3615,0.3666,0.3652,0.363,0.3736,0.3742,0.3747,0.3679,0.3678,0.3679,0.3679,0.3679,0.3679,0,0.2796,0.2781,0.2779,0.2783,0.2817,0.2834,0.2898,0.2953,0.2999,0.3066,0.3224,0.3356,0.3496,0.3551,0.3622,0.3733,0.369,0.3738,0.3693,0.3756,0.368,0.368,0.3681,0.3681,0.368,0.368,0,0,0.2772,0.2763,0.2765,0.277,0.2818,0.2844,0.293,0.3019,0.3082,0.3182,0.3276,0.3476,0.3518,0.3602,0.3697,0.3747,0.3762,0.3754,0.3756,0.3652,0.3785,0.3727,0.3719,0.3833,0.3835,0.3836,0.3691,0,0.2768,0.2764,0.2771,0.2806,0.2816,0.2875,0.2955,0.3051,0.3138,0.3242,0.3372,0.3498,0.3549,0.3613,0.3679,0.3771,0.3771,0.379,0.377,0.3767,0.3682,0.3723,0.3601,0.3463,0.3691,0.3691,0.3691,0,0.2748,0.2748,0.2759,0.2802,0.2813,0.2853,0.2965,0.3043,0.3206,0.3276,0.3406,0.3495,0.3621,0.3634,0.3741,0.3752,0.3751,0.3782,0.3779,0.3723,0.3712,0.3456,0.3453,0.338,0.369,0.369,0.369,0,0.2719,0.274,0.2739,0.2754,0.2819,0.2853,0.2909,0.3056,0.3139,0.329,0.3347,0.3503,0.3575,0.3632,0.37,0.3715,0.3769,0.3795,0.3715,0.3706,0.3595,0.3576,0.3493,0.3818,0.3818,0.3819,0.3819,0,0.2694,0.2697,0.272,0.2722,0.2757,0.2821,0.2897,0.2987,0.3129,0.3229,0.335,0.3443,0.3584,0.3646,0.3677,0.3687,0.3738,0.3696,0.3689,0.3589,0.3572,0.35,0.3466,0.3813,0.3814,0.3815,0.3816,0,0.2655,0.2662,0.2669,0.2717,0.2735,0.2766,0.2869,0.2935,0.3061,0.3184,0.3222,0.3401,0.3478,0.3563,0.3651,0.3645,0.3551,0.3645,0.3461,0.3438,0.3288,0.3259,0.3018,0.2926,0.3497,0.3495,0.3494,0,0.2627,0.262,0.265,0.2655,0.2668,0.2722,0.2765,0.2897,0.2972,0.3162,0.3211,0.3329,0.3431,0.3501,0.3524,0.3504,0.3449,0.3345,0.3378,0.3246,0.3209,0.3094,0.3027,0.3188,0.3184,0.318,0.3178,0,0.2586,0.2591,0.2594,0.2601,0.2623,0.2656,0.2724,0.2775,0.2933,0.3026,0.3156,0.3247,0.3348,0.3336,0.3331,0.3317,0.3175,0.3276,0.3221,0.3019,0.2806,0.2726,0.324,0.3149,0.3152,0.3154,0.3155,0.3156,0.2557,0.2541,0.2538,0.2537,0.2557,0.2568,0.2574,0.2662,0.2751,0.287,0.3026,0.3106,0.317,0.3181,0.3137,0.2971,0.2969,0.2873,0.285,0.2747,0.266,0.3061,0.2944,0.2946,0.2947,0.2948,0.295,0,0.2502,0.248,0.2475,0.2456,0.2434,0.2479,0.2523,0.2521,0.2566,0.2719,0.2819,0.2869,0.284,0.2852,0.2723,0.2577,0.247,0.2484,0.2311,0.2275,0.27,0.2699,0.2428,0.2428,0.2428,0.2428,0.2428,0.2428,0.2475,0.2424,0.2402,0.2327,0.2316,0.2264,0.2264,0.2288,0.2366,0.2419,0.246,0.2538,0.2607,0.2517,0.2346,0.2275,0.2098,0.1963,0.1971,0.2316,0.2351,0.2385,0.2378,0.2045,0.2045,0.1462,0.1458,0.1454]},{"header":{"parameterUnit":"m.s-1","parameterCategory":2,"la1":30.2991,"la2":30.254,"lo1":-89.0895,"lo2":-89.0444,"dy":0.0017,"dx":0.0017,"nx":28,"ny":28,"refTime":"2025-03-30T03:00:00:Z","depth":"0","parameterNumber":3,"parameterNumberName":"V-component_of_CURRENTS"},"data":[0,0,0,0,0,0,0,0,0,0,0,0,0,0,0,0,0,0,0,0,0,0,0,0,0,0,0,0,0,0,0,0,0,0,0,0,0,0,0,0,0,0,0,0,0,0,0,0,0,0,0,0,0,0,0,0,0,0,0.0247,0.0247,0,0.0185,0.0184,0.0183,0.0138,0.0138,0.0138,0.0138,0.0033,0.003,0.0028,0,0,0,0,0,0,0,0,0,0,0,0,0,0.0252,0.0252,0.0247,0.0247,0.0246,0.0185,0.0184,0.0182,0.0138,0.0138,0.0138,0.0138,0.0034,0.0031,0.0027,0,0,0,0,0,0,0,0,0,0,0,0,0,0.0223,0.0252,0.0248,0.022,0.0217,0.0185,0.0184,0.0182,0.0138,0.0138,0.0138,0.0138,0.0035,0.0031,0.0027,0.0003,0,0,0.0014,0.0012,0,0,0,0,0,0,0,0,0.0225,0.0222,0.0224,0.0221,0.0218,0.0172,0.0147,0.0121,0.0138,0.0165,0.0138,0.0138,0.0078,0.007,0.0054,-0.0002,-0.0007,0.0014,0.0011,0.001,0.0008,0,0,0,0,0,0,0,0.0227,0.0224,0.0219,0.0224,0.022,0.0184,0.018,0.0141,0.0119,0.0162,0.016,0.0158,0.0075,0.0059,0.0052,-0.0008,0.0014,0.001,0.0008,0.0006,-0.0077,-0.0077,0,0,0,0,0,0,0.0245,0.0227,0.0221,0.0218,0.0225,0.0184,0.018,0.0184,0.012,0.0112,0.0158,0.0156,0.0066,0.0056,0.0048,0.0043,0.001,0.0006,0.0003,-0.0078,-0.0077,-0.0077,0,0,0,0,0,0,0.0246,0.0246,0.0224,0.0223,0.0218,0.0185,0.019,0.0183,0.0171,0.0118,0.0108,0.0155,0.0065,0.0053,0.0021,0.0037,0.0004,0.0,-0.0078,-0.0078,-0.0077,0.0015,0,0,0,0,0,0,0.0246,0.0246,0.0251,0.0225,0.0219,0.0216,0.019,0.0182,0.0172,0.0169,0.0112,0.0102,0.0064,0.0027,0.0017,0.0031,-0.0003,-0.0078,-0.0078,-0.0077,0.0012,0.0019,0.0025,0,0,0,0,0,0.0247,0.0257,0.0252,0.0251,0.0228,0.0217,0.021,0.0184,0.0172,0.0172,0.0133,0.0104,0.0023,0.0024,0.0012,0.0025,-0.0079,-0.0078,-0.0077,0.0009,0.0018,0.0025,0,0,0,0,0,0,0.0252,0.0253,0.0247,0.0254,0.0242,0.0211,0.0206,0.0191,0.0159,0.0154,0.0103,0.0091,0.0067,0.0031,0.0034,0.0001,-0.0031,-0.0033,0.0039,0.0046,0.0052,0.0084,-0.0007,0,0,0,0,0,0.026,0.0273,0.0261,0.0265,0.0263,0.0236,0.0226,0.0213,0.0185,0.0171,0.0135,0.0093,0.0058,0.0042,0.0001,-0.0016,-0.0037,-0.0016,-0.0009,-0.0003,0.0013,0.0004,0.0012,-0.0075,-0.0075,-0.0075,0,0,0.0261,0.0264,0.0269,0.0268,0.0254,0.0261,0.0229,0.0223,0.023,0.0163,0.0156,0.0111,0.0056,0.0038,0.0025,0.0012,0.0007,-0.0003,0.0003,0.0016,0.0006,0.0015,0.0023,-0.0075,-0.0075,-0.0075,0,0,0.0278,0.0276,0.0295,0.0294,0.0289,0.0277,0.0282,0.026,0.0252,0.0236,0.0193,0.0165,0.0108,0.0083,0.006,0.0077,0.0038,0.0058,0.0122,0.0114,0.0122,0.0128,0.0106,0.011,0.0067,0.0067,0.0067,0,0.0278,0.0305,0.0295,0.0314,0.032,0.0292,0.0312,0.03,0.0272,0.0276,0.0246,0.0184,0.0134,0.0126,0.0129,0.0094,0.0078,0.01,0.0125,0.0131,0.0137,0.0112,0.0116,0.0072,0.0071,0.0071,0.007,0,0.0313,0.0333,0.0343,0.0365,0.0368,0.0379,0.0372,0.0373,0.0357,0.0348,0.0336,0.0271,0.0239,0.0217,0.0174,0.0189,0.016,0.0133,0.0114,0.0152,0.0123,0.0125,0.0078,0.0077,0.0075,0.0074,0,0,0.0326,0.0362,0.0368,0.0393,0.0401,0.0411,0.0428,0.0444,0.0473,0.0434,0.0461,0.0394,0.0366,0.0337,0.0284,0.0276,0.0286,0.0228,0.0225,0.0221,0.0263,0.0253,0.0253,0.0268,0.0269,0.0269,0.0226,0,0.0358,0.0415,0.042,0.047,0.0499,0.049,0.0515,0.0525,0.0525,0.0543,0.0492,0.0482,0.0411,0.0395,0.0378,0.0312,0.0296,0.03,0.0214,0.0211,0.0211,0.0258,0.0302,0.0268,0.0227,0.0227,0.0227,0,0.0398,0.0435,0.0492,0.0545,0.0556,0.0577,0.0627,0.0649,0.0665,0.0666,0.0654,0.0606,0.0579,0.0509,0.0436,0.0443,0.0362,0.0307,0.0304,0.0269,0.0207,0.0223,0.0272,0.0191,0.023,0.0229,0.0229,0,0.0432,0.0489,0.0541,0.0557,0.0605,0.0629,0.0655,0.0687,0.0733,0.0746,0.0767,0.0724,0.0702,0.0615,0.0486,0.0463,0.0409,0.0357,0.027,0.0267,0.0276,0.0273,0.0253,0.0306,0.0306,0.0306,0.0306,0,0.0476,0.0519,0.0563,0.0594,0.0667,0.0679,0.076,0.0781,0.0832,0.0905,0.0832,0.087,0.073,0.0669,0.054,0.0426,0.0446,0.03,0.0268,0.0306,0.0307,0.021,0.0153,0.0305,0.0305,0.0305,0.0306,0,0.0511,0.0536,0.0603,0.0662,0.0686,0.0741,0.0833,0.09,0.0925,0.1015,0.1018,0.0992,0.0923,0.0769,0.0634,0.0504,0.0338,0.0327,0.0376,0.0352,0.0194,0.014,0.0062,0.0021,0.0235,0.0235,0.0235,0,0.0537,0.0574,0.0657,0.0708,0.0737,0.082,0.0889,0.0947,0.1031,0.1102,0.1156,0.1105,0.111,0.0906,0.0683,0.0472,0.0348,0.0338,0.03,0.0214,0.013,0.0074,0.0041,0.0336,0.0336,0.0337,0.0337,0,0.0587,0.061,0.0669,0.0774,0.0851,0.0953,0.1053,0.1135,0.1215,0.1295,0.1395,0.14,0.1208,0.105,0.074,0.0574,0.0302,0.0341,0.0251,0.0218,0.016,0.0096,0.0317,0.0342,0.0341,0.0341,0.0341,0.034,0.0624,0.0673,0.0749,0.085,0.0945,0.1073,0.1171,0.1296,0.1445,0.1583,0.1584,0.164,0.1376,0.0989,0.0744,0.0354,0.0327,0.0238,0.0181,0.0132,0.0102,0.0328,0.0317,0.0316,0.0316,0.0315,0.0315,0,0.0674,0.073,0.0824,0.0945,0.1057,0.1101,0.1276,0.1393,0.1582,0.1728,0.1827,0.1765,0.1444,0.106,0.0541,0.0263,0.0136,0.0109,0.0053,0.0025,0.0237,0.0252,0.023,0.023,0.023,0.023,0.023,0.023,0.0702,0.0791,0.0837,0.1016,0.1108,0.1272,0.1379,0.1559,0.1708,0.1917,0.1994,0.202,0.1763,0.0858,0.027,0.0124,-0.0059,-0.0106,-0.0212,-0.0053,-0.0045,-0.0038,-0.0036,-0.0118,-0.0118,-0.0378,-0.0381,-0.0383]}],[{"header":{"parameterUnit":"m.s-1","parameterCategory":2,"la1":30.2991,"la2":30.254,"lo1":-89.0895,"lo2":-89.0444,"dy":0.0017,"dx":0.0017,"nx":28,"ny":28,"refTime":"2025-03-30T03:00:00:Z","depth":"2","parameterNumber":2,"parameterNumberName":"U-component_of_CURRENTS"},"data":[0,0,0,0,0,0,0,0,0,0,0,0,0,0,0,0,0,0,0,0,0,0,0,0,0,0,0,0,0,0,0,0,0,0,0,0,0,0,0,0,0,0,0,0,0,0,0,0,0,0,0,0,0,0,0,0,0,0,0.2455,0.2456,0,0.2453,0.2452,0.2452,0.2437,0.2436,0.2436,0.2436,0.2446,0.2447,0.2447,0,0,0,0,0,0,0,0,0,0,0,0,0,0.2481,0.248,0.2455,0.2456,0.2456,0.2453,0.2452,0.2452,0.2437,0.2436,0.2436,0.2436,0.2446,0.2447,0.2448,0,0,0,0,0,0,0,0,0,0,0,0,0,0.2472,0.248,0.2455,0.2449,0.2448,0.2453,0.2452,0.2452,0.2437,0.2436,0.2436,0.2436,0.2446,0.2447,0.2448,0.2459,0,0,0.245,0.245,0,0,0,0,0,0,0,0,0.2472,0.2471,0.245,0.2449,0.2449,0.2446,0.2465,0.2456,0.2437,0.244,0.2436,0.2436,0.2449,0.2449,0.2447,0.246,0.246,0.245,0.245,0.2451,0.2451,0,0,0,0,0,0,0,0.2473,0.2471,0.2453,0.245,0.2449,0.2458,0.2455,0.2463,0.2445,0.2439,0.2439,0.2441,0.2448,0.2446,0.2447,0.246,0.245,0.2451,0.2451,0.2451,0.2549,0.2551,0,0,0,0,0,0,0.2475,0.2471,0.2453,0.2453,0.2462,0.2457,0.2455,0.2446,0.2445,0.2445,0.2441,0.244,0.2445,0.2447,0.2448,0.2511,0.2451,0.2451,0.2452,0.2546,0.2549,0.2551,0,0,0,0,0,0,0.2475,0.2473,0.2453,0.2464,0.2462,0.2457,0.2447,0.2446,0.2452,0.2446,0.2446,0.2449,0.2445,0.2447,0.2471,0.2509,0.2452,0.2452,0.2544,0.2547,0.255,0.2605,0,0,0,0,0,0,0.2476,0.2473,0.2471,0.2464,0.2462,0.2462,0.2448,0.2446,0.2454,0.2453,0.2453,0.2453,0.2445,0.247,0.2472,0.2509,0.2453,0.2541,0.2545,0.2549,0.26,0.261,0.2617,0,0,0,0,0,0.2476,0.2474,0.2471,0.2469,0.2458,0.2463,0.2463,0.2457,0.2455,0.2461,0.2468,0.2454,0.2497,0.2472,0.2473,0.2512,0.2539,0.2544,0.2549,0.2597,0.2608,0.2617,0,0,0,0,0,0,0.2485,0.2472,0.2469,0.2462,0.2467,0.2461,0.2465,0.2466,0.2475,0.2477,0.2471,0.2472,0.2513,0.2507,0.2479,0.2555,0.252,0.2526,0.2556,0.2567,0.2575,0.2558,0.2454,0,0,0,0,0,0.2487,0.248,0.2476,0.2474,0.2475,0.2474,0.2477,0.2477,0.2482,0.2485,0.2489,0.2505,0.2533,0.2544,0.256,0.2593,0.2583,0.2624,0.2632,0.2639,0.2629,0.2661,0.267,0.2567,0.2567,0.2567,0,0,0.2489,0.2483,0.2479,0.2476,0.2476,0.2486,0.2475,0.2483,0.2499,0.2487,0.2512,0.2532,0.255,0.2592,0.261,0.259,0.2666,0.2646,0.2651,0.2637,0.2667,0.2676,0.2685,0.257,0.257,0.2569,0,0,0.2494,0.2486,0.2484,0.2491,0.2498,0.2501,0.2508,0.2512,0.252,0.2548,0.2557,0.2594,0.2623,0.2647,0.2663,0.2728,0.2711,0.2749,0.2774,0.2806,0.2814,0.2821,0.2821,0.2827,0.2751,0.2751,0.2752,0,0.25,0.2489,0.2488,0.2496,0.2502,0.251,0.2519,0.2535,0.2551,0.2569,0.2563,0.2636,0.2648,0.2711,0.2738,0.2746,0.2751,0.2731,0.2815,0.2821,0.2827,0.2826,0.2832,0.2755,0.2754,0.2754,0.2754,0,0.2502,0.2501,0.2504,0.2513,0.2527,0.2533,0.2556,0.2578,0.2594,0.2613,0.2674,0.2698,0.2738,0.2766,0.2769,0.2836,0.2821,0.2821,0.2782,0.2841,0.2836,0.2841,0.2759,0.2758,0.2757,0.2756,0,0,0.2486,0.2499,0.25,0.2504,0.2531,0.2539,0.258,0.2613,0.2646,0.268,0.2723,0.2785,0.2803,0.2823,0.2847,0.2876,0.2927,0.287,0.287,0.2857,0.2981,0.2911,0.2909,0.2948,0.2949,0.2951,0.296,0,0.2483,0.2492,0.2504,0.2522,0.2527,0.2556,0.2593,0.2635,0.2676,0.2725,0.277,0.2823,0.2826,0.2857,0.2891,0.2926,0.2945,0.2923,0.2937,0.2936,0.2856,0.2915,0.2682,0.2666,0.2965,0.2966,0.2966,0,0.2471,0.2479,0.249,0.2518,0.2524,0.2546,0.2603,0.2642,0.2723,0.276,0.2824,0.2857,0.2922,0.2909,0.2977,0.2967,0.2972,0.2986,0.2987,0.2899,0.2876,0.2657,0.2664,0.2975,0.2974,0.2974,0.2973,0,0.2443,0.2464,0.2468,0.2477,0.252,0.2539,0.2573,0.2653,0.2699,0.2789,0.2831,0.2906,0.295,0.2979,0.3009,0.3001,0.3067,0.3055,0.2988,0.2982,0.2773,0.2746,0.3084,0.3084,0.3084,0.3084,0.3084,0,0.2419,0.2421,0.2455,0.2456,0.2478,0.2524,0.2571,0.2625,0.2716,0.2772,0.2847,0.29,0.2973,0.3018,0.3026,0.3026,0.308,0.2992,0.2987,0.2786,0.2762,0.3018,0.3011,0.3084,0.3084,0.3084,0.3084,0,0.2379,0.2397,0.2405,0.2446,0.2461,0.2483,0.2561,0.2599,0.2696,0.2772,0.28,0.2915,0.2973,0.3021,0.3076,0.3043,0.305,0.303,0.2777,0.2741,0.2933,0.2928,0.2948,0.2945,0.2943,0.2942,0.2941,0,0.2353,0.2353,0.2389,0.2395,0.2409,0.2452,0.2479,0.258,0.2628,0.2768,0.2793,0.2891,0.2935,0.2992,0.2956,0.2941,0.3018,0.2706,0.2644,0.2929,0.2923,0.2921,0.2919,0.2385,0.2379,0.2374,0.237,0,0.2311,0.2326,0.2334,0.2347,0.2365,0.2387,0.2438,0.2473,0.2587,0.2647,0.2729,0.278,0.2842,0.2732,0.2725,0.2687,0.269,0.2609,0.2982,0.2464,0.2402,0.2395,0.241,0.2328,0.2332,0.2336,0.2338,0.234,0.228,0.2272,0.2283,0.2283,0.2301,0.2299,0.2287,0.2347,0.2394,0.2448,0.2578,0.2563,0.2584,0.2457,0.237,0.2287,0.2474,0.2345,0.2358,0.2377,0.2319,0.2258,0.2144,0.2147,0.215,0.2152,0.2154,0,0.2224,0.2216,0.2216,0.2199,0.2169,0.2214,0.2231,0.2194,0.2188,0.2262,0.2305,0.2119,0.2043,0.2057,0.1861,0.1845,0.1817,0.1767,0.1706,0.175,0.1788,0.1699,0.136,0.1358,0.1355,0.1353,0,0,0.2196,0.2158,0.2144,0.2062,0.205,0.1976,0.196,0.1926,0.1936,0.1889,0.1852,0.1994,0.2023,0.1683,0.1623,0.1455,0.1596,0.1399,0.204,0.2015,0.205,0.213,0.2043,0,0,0,0,0]},{"header":{"parameterUnit":"m.s-1","parameterCategory":2,"la1":30.2991,"la2":30.254,"lo1":-89.0895,"lo2":-89.0444,"dy":0.0017,"dx":0.0017,"nx":28,"ny":28,"refTime":"2025-03-30T03:00:00:Z","depth":"2","parameterNumber":3,"parameterNumberName":"V-component_of_CURRENTS"},"data":[0,0,0,0,0,0,0,0,0,0,0,0,0,0,0,0,0,0,0,0,0,0,0,0,0,0,0,0,0,0,0,0,0,0,0,0,0,0,0,0,0,0,0,0,0,0,0,0,0,0,0,0,0,0,0,0,0,0,0.0254,0.0254,0,0.0209,0.0208,0.0208,0.0177,0.0177,0.0177,0.0177,0.0125,0.0124,0.0122,0,0,0,0,0,0,0,0,0,0,0,0,0,0.0268,0.0268,0.0254,0.0254,0.0253,0.0209,0.0208,0.0208,0.0178,0.0177,0.0177,0.0177,0.0125,0.0124,0.0122,0,0,0,0,0,0,0,0,0,0,0,0,0,0.0246,0.0268,0.0254,0.0234,0.0231,0.0209,0.0208,0.0208,0.0178,0.0177,0.0177,0.0177,0.0126,0.0124,0.0122,0.0114,0,0,0.0116,0.0115,0,0,0,0,0,0,0,0,0.0247,0.0245,0.0237,0.0235,0.0232,0.02,0.0194,0.0176,0.0178,0.0197,0.0177,0.0177,0.015,0.0146,0.0137,0.0111,0.0109,0.0116,0.0115,0.0114,0.0113,0,0,0,0,0,0,0,0.0249,0.0247,0.0235,0.0237,0.0234,0.0211,0.0208,0.019,0.0174,0.0195,0.0193,0.019,0.0148,0.0139,0.0135,0.0108,0.0116,0.0114,0.0113,0.0112,0.0087,0.0087,0,0,0,0,0,0,0.0259,0.0249,0.0237,0.0234,0.0241,0.0211,0.0207,0.0209,0.0174,0.0169,0.019,0.0189,0.0142,0.0137,0.0133,0.0147,0.0114,0.0112,0.0111,0.0086,0.0087,0.0087,0,0,0,0,0,0,0.026,0.0259,0.0239,0.0241,0.0237,0.0211,0.0214,0.0209,0.0202,0.0171,0.0165,0.0189,0.0142,0.0136,0.0129,0.0144,0.0111,0.011,0.0086,0.0086,0.0087,0.0158,0,0,0,0,0,0,0.026,0.0259,0.0262,0.0242,0.0237,0.0234,0.0214,0.0208,0.02,0.0198,0.0168,0.0162,0.0141,0.0133,0.0128,0.014,0.0108,0.0085,0.0086,0.0087,0.0155,0.0161,0.0166,0,0,0,0,0,0.0261,0.0268,0.0263,0.0261,0.0243,0.0234,0.023,0.021,0.0201,0.0202,0.0186,0.0164,0.0134,0.0132,0.0126,0.0138,0.0085,0.0086,0.0087,0.0153,0.016,0.0166,0,0,0,0,0,0,0.0269,0.0265,0.0259,0.0263,0.0254,0.023,0.0227,0.0216,0.0202,0.0201,0.0171,0.0165,0.0164,0.014,0.0138,0.0132,0.0105,0.0105,0.0157,0.0163,0.0169,0.0186,0.0106,0,0,0,0,0,0.0275,0.0284,0.0271,0.0274,0.0272,0.0251,0.0244,0.0234,0.022,0.0214,0.0194,0.0174,0.0162,0.0156,0.0138,0.0137,0.0112,0.0139,0.0145,0.015,0.0159,0.0138,0.0143,0.0091,0.0091,0.0091,0,0,0.0277,0.0277,0.028,0.0277,0.0267,0.0275,0.0247,0.0243,0.0254,0.021,0.0217,0.0193,0.0166,0.0166,0.0163,0.015,0.0151,0.0151,0.0156,0.0162,0.014,0.0145,0.015,0.0091,0.0091,0.0091,0,0,0.0292,0.0288,0.0303,0.0303,0.0298,0.029,0.0294,0.0278,0.0275,0.0278,0.0251,0.0242,0.0218,0.0207,0.0197,0.0223,0.0181,0.0209,0.0253,0.0233,0.0238,0.0241,0.0216,0.0216,0.0213,0.0213,0.0213,0,0.0293,0.0314,0.0303,0.032,0.0327,0.0304,0.0323,0.0318,0.0303,0.0311,0.0291,0.0267,0.0242,0.025,0.0256,0.0237,0.0212,0.0233,0.0242,0.0245,0.0247,0.022,0.022,0.0217,0.0216,0.0216,0.0216,0,0.0323,0.034,0.0349,0.0369,0.0373,0.0385,0.0382,0.0387,0.038,0.0377,0.038,0.0344,0.0332,0.0319,0.0295,0.0302,0.0273,0.0252,0.0228,0.0257,0.0226,0.0225,0.0222,0.0221,0.0219,0.0219,0,0,0.0332,0.0365,0.037,0.0394,0.0404,0.0415,0.0437,0.0455,0.0483,0.0458,0.0483,0.0455,0.043,0.0417,0.038,0.0361,0.0353,0.0316,0.0313,0.0297,0.0301,0.0287,0.0283,0.0328,0.0328,0.0329,0.0272,0,0.0361,0.0412,0.0417,0.0466,0.0493,0.0489,0.0517,0.0531,0.0536,0.0553,0.0518,0.0522,0.0469,0.0461,0.0436,0.0376,0.0352,0.037,0.027,0.0267,0.0257,0.0283,0.03,0.0252,0.0271,0.027,0.027,0,0.0394,0.0429,0.0482,0.0534,0.0545,0.0567,0.0617,0.0641,0.0658,0.0661,0.0652,0.0616,0.0588,0.0534,0.0452,0.0463,0.0389,0.0337,0.0333,0.0296,0.0251,0.0225,0.0248,0.0267,0.0267,0.0268,0.0268,0,0.0423,0.0477,0.0526,0.0542,0.0591,0.0615,0.0643,0.0675,0.0718,0.0727,0.0745,0.0701,0.0683,0.059,0.0476,0.0461,0.0379,0.0345,0.0262,0.026,0.0244,0.024,0.0285,0.0285,0.0285,0.0285,0.0285,0,0.0462,0.0502,0.0546,0.0575,0.0645,0.0659,0.0735,0.0756,0.0799,0.0858,0.08,0.0823,0.0695,0.0626,0.0508,0.0388,0.0401,0.0279,0.025,0.0268,0.0268,0.0255,0.0253,0.0283,0.0283,0.0284,0.0284,0,0.0491,0.0516,0.0579,0.0637,0.0661,0.0713,0.0798,0.0858,0.088,0.0948,0.095,0.092,0.0838,0.0697,0.0557,0.0443,0.0319,0.0268,0.0296,0.0272,0.0202,0.0204,0.0176,0.0175,0.0174,0.0174,0.0173,0,0.0512,0.0546,0.0626,0.0673,0.0701,0.078,0.0843,0.0898,0.0968,0.1013,0.1053,0.0992,0.0972,0.0763,0.0561,0.036,0.0323,0.0228,0.0206,0.0219,0.0194,0.0196,0.0199,0.0207,0.0207,0.0207,0.0206,0,0.0554,0.0577,0.0632,0.0727,0.0797,0.0891,0.0981,0.1049,0.1115,0.1167,0.1224,0.1205,0.1015,0.0835,0.0556,0.0413,0.0262,0.0218,0.0231,0.0236,0.0245,0.0221,0.0223,0.0205,0.0205,0.0205,0.0205,0.0205,0.0583,0.0627,0.0696,0.0787,0.0875,0.0986,0.1071,0.117,0.1283,0.1365,0.1348,0.132,0.1106,0.0765,0.0521,0.0256,0.0272,0.0165,0.0166,0.0168,0.0186,0.0194,0.0147,0.0147,0.0147,0.0147,0.0147,0,0.0619,0.0669,0.0753,0.0862,0.096,0.1004,0.1155,0.1243,0.1375,0.1441,0.1486,0.1267,0.106,0.0794,0.0415,0.0192,0.0168,0.0103,0.0129,0.0133,0.0135,0.0152,0.0103,0.0102,0.0102,0.0101,0,0,0.0638,0.0714,0.0755,0.0907,0.0991,0.113,0.122,0.1348,0.1433,0.1506,0.1491,0.1459,0.114,0.0854,0.0553,0.033,0.0277,0.0276,0.0337,0.0408,0.0413,0.0199,0.0233,0,0,0,0,0]}],[{"header":{"parameterUnit":"m.s-1","parameterCategory":2,"la1":30.2991,"la2":30.254,"lo1":-89.0895,"lo2":-89.0444,"dy":0.0017,"dx":0.0017,"nx":28,"ny":28,"refTime":"2025-03-30T03:00:00:Z","depth":"4","parameterNumber":2,"parameterNumberName":"U-component_of_CURRENTS"},"data":[0,0,0,0,0,0,0,0,0,0,0,0,0,0,0,0,0,0,0,0,0,0,0,0,0,0,0,0,0,0,0,0,0,0,0,0,0,0,0,0,0,0,0,0,0,0,0,0,0,0,0,0,0,0,0,0,0,0,0.1724,0.1724,0,0.1698,0.1697,0.1697,0.1695,0.1696,0.1697,0.1698,0.1671,0.167,0.1668,0,0,0,0,0,0,0,0,0,0,0,0,0,0.1686,0.1687,0.1724,0.1724,0.1724,0.1698,0.1697,0.1696,0.1695,0.1696,0.1697,0.1698,0.1672,0.167,0.1668,0,0,0,0,0,0,0,0,0,0,0,0,0,0.168,0.1687,0.1724,0.1725,0.1725,0.1698,0.1697,0.1696,0.1695,0.1696,0.1698,0.1699,0.1672,0.167,0.1668,0.1629,0,0,0.1661,0.166,0,0,0,0,0,0,0,0,0.1681,0.1681,0.1725,0.1725,0.1725,0.1706,0.1674,0.1676,0.1695,0.17,0.1698,0.1699,0.1686,0.1682,0.1667,0.1628,0.1627,0.1661,0.166,0.1659,0.1658,0,0,0,0,0,0,0,0.1681,0.1682,0.1708,0.1725,0.1725,0.1697,0.1698,0.1674,0.1682,0.17,0.1701,0.1707,0.1685,0.1669,0.1666,0.1627,0.1661,0.1659,0.1658,0.1657,0.167,0.1672,0,0,0,0,0,0,0.1699,0.1683,0.1709,0.1708,0.1712,0.1698,0.1698,0.1706,0.1682,0.1681,0.1706,0.1707,0.1672,0.1669,0.1665,0.1709,0.1659,0.1657,0.1655,0.1669,0.1671,0.1672,0,0,0,0,0,0,0.1698,0.1702,0.171,0.1699,0.1699,0.1699,0.1707,0.1705,0.1727,0.1688,0.1686,0.1735,0.1673,0.1668,0.1672,0.1705,0.1656,0.1654,0.1667,0.1669,0.1671,0.1738,0,0,0,0,0,0,0.1697,0.1702,0.1726,0.17,0.17,0.1719,0.1706,0.1704,0.1729,0.1731,0.1711,0.1707,0.1673,0.1676,0.167,0.1701,0.1652,0.1664,0.1668,0.1671,0.1734,0.1743,0.175,0,0,0,0,0,0.1696,0.1718,0.1728,0.1732,0.173,0.1721,0.1718,0.1716,0.173,0.174,0.173,0.171,0.1693,0.1675,0.1668,0.1699,0.1663,0.1667,0.167,0.173,0.1741,0.175,0,0,0,0,0,0,0.1708,0.1719,0.173,0.1754,0.1753,0.1723,0.174,0.174,0.1738,0.1753,0.1716,0.1711,0.173,0.1708,0.1689,0.1716,0.1681,0.1683,0.1729,0.1738,0.1746,0.1761,0.165,0,0,0,0,0,0.1725,0.1753,0.1747,0.1771,0.1778,0.1768,0.1772,0.1773,0.1763,0.1766,0.1752,0.1744,0.1732,0.1732,0.1716,0.1722,0.1724,0.1744,0.1752,0.1759,0.1769,0.1811,0.1823,0.1685,0.1685,0.1685,0,0,0.1737,0.1749,0.1765,0.1778,0.1779,0.1785,0.1773,0.1793,0.1802,0.1762,0.1783,0.1771,0.1741,0.1748,0.1756,0.1738,0.18,0.1764,0.177,0.1776,0.1816,0.1829,0.1841,0.1687,0.1687,0.1687,0,0,0.1758,0.1788,0.1811,0.1817,0.1837,0.1827,0.1845,0.184,0.185,0.1861,0.184,0.1853,0.1833,0.1818,0.1805,0.1853,0.1842,0.1859,0.1908,0.1949,0.1961,0.1971,0.1989,0.2001,0.1863,0.1863,0.1863,0,0.1774,0.1797,0.1815,0.1832,0.1842,0.1853,0.1866,0.1871,0.1871,0.1882,0.1886,0.1886,0.1865,0.1869,0.1887,0.1871,0.1888,0.1868,0.196,0.197,0.198,0.1996,0.2008,0.1866,0.1866,0.1866,0.1865,0,0.1793,0.1824,0.1839,0.1867,0.1881,0.1897,0.1907,0.1931,0.1952,0.1955,0.1987,0.1966,0.1969,0.1969,0.1938,0.1993,0.1981,0.1965,0.1934,0.1998,0.2011,0.2022,0.1872,0.187,0.1869,0.1868,0,0,0.1784,0.1841,0.1849,0.1867,0.1902,0.1907,0.1944,0.1962,0.1994,0.2018,0.2052,0.205,0.2065,0.2053,0.2033,0.2065,0.2141,0.2052,0.2053,0.2068,0.2229,0.2061,0.2056,0.2149,0.2151,0.2153,0.221,0,0.1789,0.1829,0.1856,0.1891,0.1905,0.1936,0.1963,0.1995,0.2026,0.2064,0.2079,0.2106,0.2089,0.2104,0.2138,0.2138,0.2175,0.2126,0.2166,0.2167,0.2008,0.2065,0.2161,0.2218,0.222,0.2222,0.2223,0,0.1782,0.1813,0.1853,0.1901,0.1912,0.1942,0.1995,0.2023,0.2082,0.2114,0.2162,0.2174,0.2222,0.2203,0.2266,0.2242,0.2251,0.2251,0.2253,0.208,0.2019,0.2142,0.2243,0.2242,0.224,0.2239,0.2238,0,0.1744,0.1801,0.1836,0.1853,0.1913,0.1948,0.1986,0.2047,0.2082,0.2162,0.2201,0.2256,0.2293,0.233,0.2335,0.232,0.2396,0.237,0.2226,0.2214,0.2319,0.2307,0.2428,0.2428,0.2428,0.2428,0.2427,0,0.1709,0.174,0.1831,0.1847,0.1894,0.1948,0.2006,0.2053,0.2132,0.2167,0.2236,0.2263,0.2336,0.2372,0.2373,0.2327,0.2435,0.2243,0.2222,0.2344,0.2335,0.2326,0.2314,0.243,0.2429,0.2429,0.2428,0,0.165,0.1712,0.1757,0.1845,0.1878,0.1917,0.2016,0.2047,0.2141,0.2193,0.2225,0.2305,0.2342,0.2381,0.2431,0.2353,0.2337,0.2295,0.2425,0.2409,0.212,0.211,0.214,0.2135,0.213,0.2127,0.2123,0,0.1616,0.164,0.1753,0.1784,0.1831,0.1903,0.194,0.2043,0.2072,0.2186,0.2189,0.2271,0.23,0.2238,0.2298,0.2287,0.2255,0.223,0.217,0.2116,0.2093,0.2091,0.2088,0.2116,0.2115,0.2114,0.2113,0,0.1551,0.1616,0.1658,0.1728,0.1782,0.1824,0.189,0.1902,0.1999,0.2107,0.2095,0.2092,0.2122,0.2134,0.2138,0.2127,0.2235,0.2182,0.2191,0.2134,0.2087,0.2068,0.2071,0.2097,0.2099,0.2101,0.2101,0,0.1513,0.153,0.1603,0.1643,0.1709,0.1711,0.1761,0.1779,0.1822,0.1939,0.1934,0.2009,0.2102,0.2051,0.2058,0.2029,0.199,0.1912,0.1934,0.1952,0.1859,0.177,0.1671,0,0,0,0,0,0.1458,0.1464,0.1502,0.1531,0.1588,0.1623,0.1701,0.175,0.1848,0.1789,0.1853,0.1863,0.1848,0.1896,0.1825,0.1976,0.2007,0.1884,0.1931,0.2009,0.2027,0.1932,0,0,0,0,0,0,0.1422,0.1464,0.1467,0.1426,0.1423,0.1462,0.1509,0.1578,0.155,0.1661,0.1669,0.1745,0.1771,0.187,0.179,0.1802,0.1789,0.194,0.1934,0.1999,0.2015,0.203,0.1938,0,0,0,0,0]},{"header":{"parameterUnit":"m.s-1","parameterCategory":2,"la1":30.2991,"la2":30.254,"lo1":-89.0895,"lo2":-89.0444,"dy":0.0017,"dx":0.0017,"nx":28,"ny":28,"refTime":"2025-03-30T03:00:00:Z","depth":"4","parameterNumber":3,"parameterNumberName":"V-component_of_CURRENTS"},"data":[0,0,0,0,0,0,0,0,0,0,0,0,0,0,0,0,0,0,0,0,0,0,0,0,0,0,0,0,0,0,0,0,0,0,0,0,0,0,0,0,0,0,0,0,0,0,0,0,0,0,0,0,0,0,0,0,0,0,0.0219,0.0219,0,0.0194,0.0194,0.0194,0.0181,0.0181,0.0181,0.0181,0.0172,0.0172,0.0172,0,0,0,0,0,0,0,0,0,0,0,0,0,0.0229,0.0229,0.0219,0.0219,0.0218,0.0195,0.0194,0.0194,0.0181,0.0181,0.0181,0.0181,0.0172,0.0172,0.0172,0,0,0,0,0,0,0,0,0,0,0,0,0,0.0217,0.0229,0.0219,0.0209,0.0208,0.0195,0.0194,0.0194,0.0181,0.0181,0.0181,0.0181,0.0172,0.0172,0.0172,0.0171,0,0,0.0171,0.0171,0,0,0,0,0,0,0,0,0.0217,0.0216,0.0211,0.021,0.0208,0.0191,0.0194,0.0187,0.0181,0.0192,0.0181,0.0181,0.018,0.0179,0.0174,0.017,0.017,0.0171,0.0171,0.017,0.017,0,0,0,0,0,0,0,0.0218,0.0217,0.0209,0.021,0.0209,0.0197,0.0195,0.0193,0.0187,0.0191,0.019,0.0187,0.0179,0.0175,0.0174,0.017,0.0171,0.0171,0.017,0.017,0.0181,0.0181,0,0,0,0,0,0,0.0222,0.0218,0.021,0.0209,0.0213,0.0197,0.0195,0.0197,0.0186,0.0185,0.0187,0.0186,0.0175,0.0175,0.0174,0.0199,0.017,0.017,0.017,0.018,0.0181,0.0182,0,0,0,0,0,0,0.0223,0.0222,0.0211,0.0212,0.021,0.0197,0.0198,0.0196,0.0197,0.0183,0.0182,0.0191,0.0175,0.0174,0.0184,0.0197,0.017,0.017,0.018,0.0181,0.0181,0.0232,0,0,0,0,0,0,0.0223,0.0223,0.0227,0.0213,0.021,0.0211,0.0198,0.0196,0.0195,0.0194,0.0186,0.0185,0.0175,0.0184,0.0183,0.0196,0.017,0.0179,0.018,0.0181,0.0229,0.0234,0.0238,0,0,0,0,0,0.0224,0.023,0.0227,0.0226,0.0216,0.0211,0.0209,0.0199,0.0196,0.02,0.0198,0.0186,0.0189,0.0185,0.0183,0.0197,0.0179,0.018,0.0181,0.0227,0.0233,0.0238,0,0,0,0,0,0,0.0232,0.0229,0.0226,0.023,0.0225,0.0209,0.0211,0.0205,0.0206,0.0208,0.0195,0.0194,0.0206,0.0194,0.0189,0.0201,0.018,0.0181,0.0216,0.0221,0.0225,0.0234,0.0169,0,0,0,0,0,0.0238,0.0245,0.0236,0.0239,0.0239,0.0227,0.0225,0.022,0.0216,0.0216,0.0211,0.0207,0.0208,0.021,0.0206,0.0215,0.0193,0.0221,0.0225,0.0229,0.0235,0.021,0.0212,0.0185,0.0185,0.0185,0,0,0.024,0.0241,0.0243,0.0242,0.0238,0.0246,0.0226,0.0228,0.024,0.0216,0.0233,0.0223,0.0214,0.0225,0.0229,0.0218,0.0225,0.023,0.0234,0.0238,0.0211,0.0214,0.0216,0.0186,0.0186,0.0186,0,0,0.0253,0.0253,0.0265,0.0266,0.0266,0.0262,0.0266,0.0259,0.0262,0.0274,0.0261,0.0262,0.0262,0.0258,0.0256,0.0282,0.0248,0.0277,0.0308,0.0283,0.0285,0.0287,0.0262,0.0261,0.0279,0.0279,0.0279,0,0.0257,0.0274,0.0266,0.028,0.0288,0.0274,0.0291,0.0292,0.029,0.03,0.0288,0.0289,0.028,0.0294,0.0301,0.0293,0.0269,0.0291,0.0289,0.029,0.0291,0.0264,0.0263,0.0282,0.0281,0.0281,0.0281,0,0.0279,0.0296,0.0304,0.0322,0.0329,0.0341,0.0343,0.0353,0.0354,0.0354,0.0368,0.0349,0.035,0.0344,0.0332,0.0336,0.0315,0.0297,0.0277,0.0297,0.0268,0.0265,0.0285,0.0284,0.0284,0.0283,0,0,0.0284,0.0315,0.032,0.0343,0.0355,0.0366,0.039,0.041,0.0436,0.0424,0.0446,0.0438,0.0422,0.0418,0.0396,0.0373,0.0357,0.034,0.0338,0.0318,0.03,0.0279,0.0274,0.0336,0.0336,0.0336,0.0277,0,0.0307,0.035,0.0357,0.0401,0.0425,0.0429,0.0457,0.0473,0.0483,0.0499,0.0476,0.0487,0.0452,0.0453,0.0426,0.0378,0.0352,0.0375,0.0282,0.0279,0.0261,0.0271,0.0335,0.0275,0.0274,0.0274,0.0273,0,0.033,0.036,0.0407,0.0457,0.0468,0.0492,0.054,0.0565,0.0582,0.0588,0.0584,0.056,0.0538,0.0497,0.0422,0.0437,0.0375,0.0328,0.0324,0.0287,0.0254,0.025,0.0268,0.0268,0.0269,0.0269,0.0269,0,0.0347,0.0397,0.0442,0.0457,0.0506,0.0533,0.0562,0.0594,0.0631,0.0643,0.0658,0.0622,0.0608,0.0527,0.0433,0.0426,0.0337,0.0315,0.0236,0.0234,0.0247,0.0246,0.0255,0.0255,0.0255,0.0255,0.0255,0,0.0371,0.0409,0.0457,0.0483,0.0548,0.0569,0.0637,0.066,0.0698,0.0741,0.0705,0.0713,0.0613,0.0549,0.0451,0.0339,0.035,0.0245,0.0219,0.0269,0.0271,0.0245,0.0244,0.0253,0.0253,0.0254,0.0254,0,0.0384,0.0413,0.0471,0.0532,0.0558,0.0607,0.069,0.0738,0.0765,0.0813,0.0816,0.0785,0.0705,0.0592,0.0464,0.0372,0.026,0.0214,0.0281,0.026,0.0167,0.017,0.0124,0.0122,0.0121,0.0121,0.012,0,0.0394,0.0425,0.0507,0.055,0.0582,0.0658,0.0715,0.077,0.0821,0.0853,0.0873,0.0817,0.0773,0.0586,0.0463,0.0277,0.0242,0.0176,0.0165,0.0174,0.0154,0.0159,0.0163,0.0118,0.0118,0.0118,0.0118,0,0.0414,0.0443,0.0493,0.058,0.0647,0.0729,0.0807,0.0847,0.0904,0.0923,0.0915,0.0821,0.0731,0.0588,0.0446,0.0309,0.0216,0.0165,0.0166,0.0155,0.0167,0.0149,0.0154,0.0114,0.0115,0.0115,0.0115,0,0.0428,0.0463,0.0527,0.0605,0.0691,0.0772,0.0817,0.0871,0.0921,0.0946,0.0941,0.0843,0.0796,0.0605,0.0474,0.034,0.0296,0.0232,0.0228,0.0231,0.0273,0.0305,0.0277,0,0,0,0,0,0.0437,0.0475,0.0546,0.0632,0.0719,0.0772,0.0867,0.0906,0.0952,0.0948,0.0947,0.0859,0.0674,0.0609,0.0471,0.0443,0.0267,0.0273,0.019,0.0095,0.0099,0.0129,0,0,0,0,0,0,0.0442,0.0504,0.054,0.064,0.0701,0.08,0.0864,0.0898,0.0903,0.0923,0.0839,0.0797,0.0632,0.0748,0.0458,0.0421,0.0341,0.0197,0.0193,0.0093,0.0097,0.01,0.0132,0,0,0,0,0]}]]